Regional Weather Roundup
Issued by NWS

Home | Current Version | Previous Version | Graphics & Text | Print | Product List | Glossary On
Versions: 1 2 3 4 5 6 7 8 9 10 11 12 13 14 15 16 17 18 19 20 21 22 23 24 25 26 27 28 29 30 31 32 33 34 35 36 37 38 39 40 41 42 43 44 45 46 47 48 49 50
000
ASUS43 KDTX 070410
RWRMI
MICHIGAN HOURLY REGIONAL WEATHER ROUNDUP
NATIONAL WEATHER SERVICE DETROIT/PONTIAC MI
ISSUED BY NATIONAL WEATHER SERVICE GRAND RAPIDS MI
1100 PM EST TUE DEC 06 2016

NOTE: "FAIR" INDICATES FEW OR NO CLOUDS BELOW 12,000 FEET WITH NO
SIGNIFICANT WEATHER AND/OR OBSTRUCTION TO VISIBILITY.

MIZ047>049-052>055-059>063-066>070-074>076-081>083-070500-
SOUTHEAST LOWER MICHIGAN

CITY           SKY/WX    TMP DP  RH WIND       PRES   REMARKS
ADRIAN         PTCLDY    35  31  85 W10       29.86R WCI  27
ALMA           MOCLDY    34  30  86 W10G16    29.78R WCI  26
ANN ARBOR      MOCLDY    36  32  85 W15G22    29.82R WCI  27
BAD AXE        MOCLDY    35  34  96 SW8       29.73R FOG     WCI  29
DETROIT CITY   CLOUDY    38  36  92 W10       29.81R WCI  31
DETROIT        MOCLDY    38  35  89 SW14      29.83R WCI  30
FLINT          CLEAR     36  31  82 W12       29.80R WCI  28
GROSSE ILE     MOCLDY    38  35  89 W8        29.81R WCI  32
HILLSDALE      CLOUDY    34  28  80 W13G26    29.84R WCI  25
HOWELL         PTCLDY    35  30  83 W14       29.80R WCI  26

CITY           SKY/WX    TMP DP  RH WIND       PRES   REMARKS
JACKSON        CLOUDY    35  27  72 W15G22    29.83R WCI  25
LANSING        PTCLDY    35  25  66 W17G26    29.82R WCI  25
MASON          CLOUDY    36  30  81 W12G21    29.82R WCI  27
MONROE         CLOUDY    38  35  88 W13       29.83R WCI  30
MT. CLEMENS    CLOUDY    39  37  93 W9        29.77R WCI  33
PONTIAC        CLOUDY    36  32  85 W16G23    29.78R WCI  26
PORT HOPE        N/A     37  35  92 SW7       29.70R WCI  32
PORT HURON     CLEAR     36  36 100 CALM      29.77R
TRI CITIES     CLEAR     35  32  88 SW12      29.77R WCI  27
YPSILANTI      PTCLDY    37  34  89 W10       29.82R WCI  30
$$
MIZ043>046-050>051-056>058-064>065-071>073-077>080-070500-
SOUTHWEST LOWER MICHIGAN

CITY           SKY/WX    TMP DP  RH WIND       PRES   REMARKS
BATTLE CREEK   PTCLDY    34  25  69 W17       29.85R WCI  23
BENTON HARBOR  MOCLDY    33  24  69 W25G32    29.91R WCI  20
BIG RAPIDS     MOCLDY    34  21  60 W14G26    29.76R WCI  24
COLDWATER      CLOUDY    33  28  80 W13G21    29.86R WCI  24
HOLLAND        CLOUDY    33  25  72 W20G31    29.87R WCI  21
GRAND RAPIDS   CLOUDY    35  25  66 W17       29.84R WCI  25
KALAMAZOO      MOCLDY    34  23  64 W16G28    29.87R WCI  24
MARSHALL       MOCLDY    34  29  81 W13G18    29.84R WCI  25
MOUNT PLEASANT PTCLDY    34  27  74 W13       29.76R WCI  25
MUSKEGON       CLOUDY    33  23  66 W20G30    29.85R WCI  21
STURGIS        CLOUDY    32  27  80 W13       29.88R WCI  22
$$
MIZ016>042-070500-
NORTHERN LOWER MICHIGAN

CITY           SKY/WX    TMP DP  RH WIND       PRES   REMARKS
ALPENA         CLOUDY    36  31  82 S8        29.66S WCI  30
BEAVER ISLAND  CLOUDY    34  28  77 W24G30    29.64R WCI  22
BELLAIRE       CLOUDY    36  26  67 W9G20     29.69R WCI  29
CADILLAC       CLOUDY    32  22  67 W14G23    29.71R WCI  22
CHARLEVOIX     CLOUDY    36  28  72 SW21G30   29.69R WCI  24
GAYLORD        MOCLDY    34  25  69 SW20G28   29.65R WCI  23
HOUGHTON LAKE  CLOUDY    34  26  72 W16G26    29.70R WCI  24
MANISTEE       CLOUDY    31  23  72 W21       29.77R WCI  18
OSCODA         CLOUDY    37  33  86 SW8       29.69R WCI  31
PELLSTON       CLOUDY    38  26  62 SW16G30   29.63R WCI  29
TRAVERSE CITY  CLOUDY    35  25  66 W17G25    29.71R WCI  25
LUDINGTON      CLOUDY    29  22  74 W14G26    29.81R WCI  19
$$
MIZ007>008-015-070500-
EASTERN UPPER MICHIGAN

CITY           SKY/WX    TMP DP  RH WIND       PRES   REMARKS
KINROSS        CLOUDY    34  32  93 SW6       29.60R WCI  29
MACKINAC ISLAN CLOUDY    35  35 100 SW17G23   29.60S WCI  24
NEWBERRY       PTCLDY    32  29  90 SW20      29.58R WCI  20
S. S. MARIE    FLURRIES  35  32  88 SW9       29.58R WCI  28
$$
MIZ004>006-011>014-085-070500-
CENTRAL UPPER MICHIGAN

CITY           SKY/WX    TMP DP  RH WIND       PRES   REMARKS
MANISTIQUE     MOCLDY    30  21  69 SW7G20    29.63R WCI  23
ESCANABA       CLOUDY    27  17  66 SW15G22   29.68R WCI  15
MENOMINEE      FLURRIES  27  17  66 W12G18    29.74R WCI  17
SAWYER-GWINN   CLOUDY    24  17  73 W14       29.61R WCI  12
$$
MIZ001>003-009>011-084-070500-
WESTERN UPPER MICHIGAN

CITY           SKY/WX    TMP DP  RH WIND       PRES   REMARKS
IRON MOUNTAIN  CLOUDY    24  14  65 SW10G24   29.64S WCI  14
HOUGHTON       CLOUDY    24  15  68 SW10G21   29.56S WCI  14
COPPER HARBOR    N/A     28  17  63 W9G20     29.56R WCI  19
IRONWOOD       FLURRIES  22  15  75 SW21      29.57S WCI   6
$$

ABBREVIATIONS USED IN REMARKS
   TC - TEMPERATURE IN CELSIUS
  WCI - WIND CHILL INDEX
   HX - HEAT INDEX
  VSB - VISIBILITY




USA.gov is the U.S. government's official web portal to all federal, state and local government web resources and services.